Date String (YYYY-MM-DD hh:mm:ss) UTC,Instrument flags,Ambient pressure (hPa),Sample flow (lpm),Bypass flow (lpm),Sample temperature (°C),Ambient temperature (°C),ASC tube jacket temperature (°C),LED temperature (°C),Box temperature (°C),Sample RH (%),Span deviation,Mass concentration (μg/m³),Mass concentration (μg/m³),Mass concentration (μg/m³)
DateTimeUTC,F1_M11,P_M11,Q1_M11,Q2_M11,T1_M11,T2_M11,T3_M11,T4_M11,T5_M11,U1_M11,ZSPAN_M11,X0_M11,X2_M11,X1_M11
2022-03-28 03:00:00,,0821.7,5.01,0.00,29.8,28.9,00.0,38.7,31.5,12.9,0002.5,0034.39,0019.65,0017.65
2022-03-28 03:01:00,,0821.7,4.99,0.00,29.8,28.9,00.0,38.7,31.5,12.9,0002.4,0034.33,0019.70,0017.73
2022-03-28 03:02:00,,0821.7,5.01,0.00,29.8,28.9,00.0,38.7,31.5,12.9,0002.8,0035.39,0019.74,0017.82
2022-03-28 03:03:00,,0821.7,4.99,0.00,29.8,28.9,00.0,38.7,31.5,12.9,0003.2,0036.94,0019.80,0017.93
2022-03-28 03:04:00,,0821.8,5.00,0.00,29.8,28.9,00.0,38.7,31.5,12.9,0002.9,0038.61,0019.83,0017.99
2022-03-28 03:05:00,,0821.8,5.00,0.00,29.8,28.9,00.0,38.7,31.5,12.9,0003.3,0039.95,0019.88,0018.01
2022-03-28 03:06:00,,0821.8,5.01,0.00,29.8,28.9,00.0,38.7,31.5,12.9,0003.7,0037.94,0019.83,0018.00
2022-03-28 03:07:00,,0821.7,4.99,0.00,29.8,28.9,00.0,38.8,31.5,12.9,0003.7,0038.14,0019.79,0017.97
2022-03-28 03:08:00,,0821.8,5.01,0.00,29.8,28.9,00.0,38.7,31.5,12.9,0004.2,0039.68,0019.78,0017.93
2022-03-28 03:09:00,,0821.7,5.01,0.00,29.8,28.9,00.0,38.8,31.5,13.0,0004.3,0040.48,0019.72,0017.91
2022-03-28 03:10:00,,0821.7,4.99,0.00,29.8,28.9,00.0,38.8,31.5,13.0,0004.0,0039.92,0019.66,0017.88
2022-03-28 03:11:00,,0821.7,5.02,0.00,29.8,28.9,00.0,38.8,31.5,13.0,0003.7,0039.41,0019.62,0017.85
2022-03-28 03:12:00,,0821.6,4.98,0.00,29.8,28.9,00.0,38.8,31.5,13.0,0004.2,0040.31,0019.63,0017.85
2022-03-28 03:13:00,,0821.6,5.01,0.00,29.8,28.8,00.0,38.7,31.5,13.0,0004.1,0040.11,0019.61,0017.86
2022-03-28 03:14:00,,0821.7,4.99,0.00,29.8,28.8,00.0,38.7,31.5,13.0,0004.1,0039.72,0019.66,0017.87
2022-03-28 03:15:00,,0821.6,5.01,0.00,29.8,28.8,00.0,38.7,31.5,13.0,0004.0,0038.46,0019.73,0017.91
2022-03-28 03:16:00,,0821.6,4.99,0.00,29.8,28.8,00.0,38.7,31.5,13.1,0003.8,0037.17,0019.69,0017.92
2022-03-28 03:17:00,,0821.7,4.99,0.00,29.8,28.8,00.0,38.7,31.5,13.1,0003.5,0037.42,0019.72,0017.97
2022-03-28 03:18:00,,0821.6,5.02,0.00,29.7,28.8,00.0,38.7,31.5,13.1,0003.4,0036.92,0019.75,0017.99
2022-03-28 03:19:00,,0821.7,4.99,0.00,29.7,28.8,00.0,38.7,31.4,13.2,0003.4,0036.82,0019.74,0017.98
2022-03-28 03:20:00,,0821.7,5.01,0.00,29.7,28.8,00.0,38.7,31.4,13.3,0003.4,0036.11,0019.74,0017.94
2022-03-28 03:21:00,,0821.7,5.00,0.00,29.7,28.7,00.0,38.7,31.4,13.3,0003.4,0035.85,0019.72,0017.88
2022-03-28 03:22:00,,0821.6,4.99,0.00,29.7,28.7,00.0,38.7,31.4,13.3,0003.3,0037.72,0019.72,0017.86
2022-03-28 03:23:00,,0821.6,5.00,0.00,29.7,28.7,00.0,38.7,31.3,13.3,0003.0,0038.32,0019.71,0017.81
2022-03-28 03:24:00,,0821.7,4.99,0.00,29.7,28.7,00.0,38.7,31.4,13.3,0002.8,0037.70,0019.65,0017.77
2022-03-28 03:25:00,,0821.7,5.01,0.00,29.7,28.8,00.0,38.7,31.4,13.3,0002.8,0036.30,0019.53,0017.72
2022-03-28 03:26:00,,0821.7,5.01,0.00,29.7,28.8,00.0,38.7,31.4,13.3,0003.2,0037.80,0019.44,0017.67
2022-03-28 03:27:00,,0821.6,4.99,0.00,29.7,28.7,00.0,38.7,31.4,13.4,0003.3,0038.53,0019.45,0017.65
2022-03-28 03:28:00,,0821.6,5.01,0.00,29.6,28.7,00.0,38.7,31.3,13.4,0003.6,0038.38,0019.41,0017.60
2022-03-28 03:29:00,,0821.6,4.99,0.00,29.6,28.7,00.0,38.7,31.3,13.4,0003.7,0038.11,0019.38,0017.58
2022-03-28 03:30:00,,0821.6,5.02,0.00,29.6,28.7,00.0,38.7,31.3,13.4,0003.6,0037.17,0019.37,0017.59
2022-03-28 03:31:00,,0821.7,4.99,0.00,29.6,28.7,00.0,38.7,31.3,13.4,0003.4,0037.41,0019.39,0017.64
2022-03-28 03:32:00,,0821.7,5.00,0.00,29.6,28.7,00.0,38.6,31.3,13.6,0003.5,0037.39,0019.34,0017.61
2022-03-28 03:33:00,,0821.6,4.99,0.00,29.6,28.7,00.0,38.6,31.3,13.5,0003.9,0035.88,0019.33,0017.58
2022-03-28 03:34:00,,0821.6,4.99,0.00,29.6,28.7,00.0,38.6,31.3,13.4,0004.0,0035.59,0019.32,0017.61
2022-03-28 03:35:00,,0821.6,5.00,0.00,29.6,28.7,00.0,38.6,31.3,13.4,0003.6,0035.37,0019.30,0017.59
2022-03-28 03:36:00,,0821.6,5.00,0.00,29.6,28.7,00.0,38.6,31.3,13.4,0003.2,0035.28,0019.26,0017.55
2022-03-28 03:37:00,,0821.7,4.99,0.00,29.6,28.7,00.0,38.6,31.2,13.4,0002.6,0034.24,0019.26,0017.51
2022-03-28 03:38:00,,0821.7,5.00,0.00,29.5,28.6,00.0,38.6,31.2,13.4,0002.6,0033.44,0019.24,0017.47
2022-03-28 03:39:00,,0821.7,5.01,0.00,29.5,28.6,00.0,38.6,31.2,13.4,0002.4,0033.26,0019.22,0017.47
2022-03-28 03:40:00,,0821.6,4.99,0.00,29.5,28.6,00.0,38.6,31.2,13.6,0002.5,0034.24,0019.23,0017.44
2022-03-28 03:41:00,,0821.5,5.02,0.00,29.5,28.6,00.0,38.6,31.2,13.7,0002.5,0034.53,0019.07,0017.32
2022-03-28 03:42:00,,0821.6,4.99,0.00,29.5,28.6,00.0,38.6,31.2,13.6,0003.1,0034.01,0018.96,0017.22
2022-03-28 03:43:00,,0821.5,5.01,0.00,29.5,28.6,00.0,38.6,31.2,13.6,0002.6,0032.70,0018.91,0017.20
2022-03-28 03:44:00,,0821.5,5.00,0.00,29.5,28.6,00.0,38.6,31.2,13.6,0002.4,0031.88,0018.80,0017.16
2022-03-28 03:45:00,,0821.6,5.01,0.00,29.5,28.6,00.0,38.5,31.2,13.5,0002.2,0031.22,0018.71,0017.07
2022-03-28 03:46:00,,0821.6,5.01,0.00,29.5,28.6,00.0,38.5,31.2,13.5,0002.5,0031.13,0018.71,0017.05
2022-03-28 03:47:00,,0821.6,5.00,0.00,29.5,28.6,00.0,38.5,31.2,13.5,0002.7,0030.33,0018.66,0017.02
2022-03-28 03:48:00,,0821.7,5.00,0.00,29.5,28.6,00.0,38.5,31.1,13.7,0003.1,0029.44,0018.56,0016.95
2022-03-28 03:49:00,,0821.5,4.99,0.00,29.5,28.5,00.0,38.5,31.2,13.7,0003.0,0030.52,0018.50,0016.92
2022-03-28 03:50:00,,0821.5,5.01,0.00,29.5,28.5,00.0,38.5,31.2,13.6,0002.9,0030.73,0018.45,0016.87
2022-03-28 03:51:00,,0821.4,5.00,0.00,29.4,28.5,00.0,38.5,31.2,13.6,0002.8,0029.23,0018.43,0016.89
2022-03-28 03:52:00,,0821.5,5.00,0.00,29.4,28.5,00.0,38.5,31.1,13.7,0002.8,0028.52,0018.52,0016.97
2022-03-28 03:53:00,,0821.4,5.01,0.00,29.4,28.5,00.0,38.5,31.1,13.7,0002.5,0028.31,0018.55,0016.95
2022-03-28 03:54:00,,0821.5,5.00,0.00,29.4,28.5,00.0,38.5,31.1,13.7,0002.7,0028.25,0018.53,0016.92
2022-03-28 03:55:00,,0821.5,4.99,0.00,29.4,28.5,00.0,38.5,31.1,13.7,0002.7,0028.93,0018.51,0016.91
2022-03-28 03:56:00,,0821.5,5.02,0.00,29.4,28.5,00.0,38.5,31.0,13.7,0002.7,0029.40,0018.51,0016.91
2022-03-28 03:57:00,,0821.4,5.00,0.00,29.4,28.4,00.0,38.5,31.1,13.8,0003.1,0030.57,0018.43,0016.81
2022-03-28 03:58:00,,0821.4,4.99,0.00,29.4,28.4,00.0,38.4,31.1,13.7,0003.3,0031.57,0018.37,0016.75
2022-03-28 03:59:00,,0821.4,5.00,0.00,29.4,28.5,00.0,38.4,31.1,13.7,0003.1,0032.24,0018.43,0016.80
